Location: Newark
(35.6799°N, 139.7636°E)
Time: 03:40:27
(UTC+00:00)

Tiros 1 - Visible Passes

Search period start: 06 December 2019 00:00
Search period end: 16 December 2019 00:00
Orbit: 630 x 664 km, 48.4° (Epoch: 04 December)

Date Brightness Start Highest point End Pass type
(mag) Time Alt. Az. Time Alt. Az. Time Alt. Az.
06 Dec 9.8 20:18:39 10° S 20:22:08 21° SE 20:25:36 10° E visible
07 Dec 8.1 20:43:23 10° SSW 20:47:56 49° SE 20:52:27 10° ENE visible
08 Dec 9.7 19:28:51 10° S 19:32:08 19° SE 19:35:25 10° E visible
08 Dec 7.1 21:09:14 10° WSW 21:13:56 73° NW 21:18:37 10° NE visible
09 Dec 8.2 19:53:24 10° SSW 19:57:55 45° SE 20:02:23 10° ENE visible
10 Dec 9.6 18:42:02 17° SE 18:42:09 17° SE 18:45:12 10° E visible
10 Dec 7.0 20:19:47 14° WSW 20:23:54 79° NW 20:28:36 10° NE visible
11 Dec 8.3 19:08:15 40° SE 19:08:15 40° SE 19:12:19 10° ENE visible
11 Dec 7.7 20:45:59 12° W 20:50:06 39° NNW 20:54:31 10° NE visible
12 Dec 7.1 19:34:08 78° NNE 19:34:08 78° NNE 19:38:34 10° NE visible
12 Dec 8.4 21:12:41 10° WNW 21:16:33 24° NNW 21:20:23 10° NE visible
13 Dec 10.2 18:22:01 11° ENE 18:22:01 11° ENE 18:22:14 10° ENE visible
13 Dec 7.5 19:59:44 41° NW 20:00:02 42° NNW 20:04:31 10° NE visible
14 Dec 9.6 18:47:28 17° NE 18:47:28 17° NE 18:48:33 10° NE visible
14 Dec 8.3 20:25:09 22° NW 20:26:28 25° NNW 20:30:23 10° NE visible
15 Dec 9.1 19:12:44 22° NNE 19:12:44 22° NNE 19:14:30 10° NE visible
15 Dec 8.8 20:50:25 13° NW 20:53:04 19° N 20:56:24 10° NE visible
